N7UV-WX Weather Reports


time (UTC)temp
F
wind
direction
speed
knots
gust
knots
rain 1hr
in
rain 24hr
in
rain mn
in
humidity
%
barometer
mb
20260502151553 78 0.0 0.0 0.00 0.00 0.00 28 1012.4
20260502150548 77 0.0 1.7 0.00 0.00 0.00 29 1012.2
20260502130518 72 0.0 0.0 0.00 0.00 0.00 24 1010.9
20260502123535 73 0.0 0.0 0.00 0.00 0.00 23 1010.5
20260502122535 72 0.0 0.0 0.00 0.00 0.00 23 1010.3
20260502121556 72 0.0 0.0 0.00 0.00 0.00 24 1010.2
20260502120503 72 0.0 0.0 0.00 0.00 0.00 24 1010.2
20260502115519 72 0.0 0.0 0.00 0.00 0.00 23 1010.1
20260502114540 73 0.0 0.0 0.00 0.00 0.00 23 1010.2
20260502113520 73 0.0 0.0 0.00 0.00 0.00 23 1010.1
20260502112518 74 0.0 0.0 0.00 0.00 0.00 22 1010.2
20260502111535 76 0.0 0.0 0.00 0.00 0.00 21 1010.2
20260502110520 77 0.0 0.0 0.00 0.00 0.00 18 1010.0
20260502105520 78 0.0 0.0 0.00 0.00 0.00 18 1009.9
20260502104520 78 0.0 0.9 0.00 0.00 0.00 17 1009.9
20260502103520 78 0.0 0.0 0.00 0.00 0.00 18 1009.9
20260502102520 78 0.0 2.6 0.00 0.00 0.00 18 1009.7
20260502101535 78 0.0 0.9 0.00 0.00 0.00 18 1009.6
20260502100520 78 248 0.9 5.2 0.00 0.00 0.00 18 1009.6
20260502091519 78 0.0 0.0 0.00 0.00 0.00 18 1009.5
20260502090535 79 0.0 0.0 0.00 0.00 0.00 18 1009.5
20260502071535 80 0.0 0.0 0.00 0.00 0.00 16 1009.0
20260502070519 80 0.0 0.0 0.00 0.00 0.00 16 1009.0
20260502065519 80 158 1.7 7.0 0.00 0.00 0.00 17 1009.0
20260502064519 81 158 1.7 5.2 0.00 0.00 0.00 17 1009.0
20260502063554 81 135 2.6 7.0 0.00 0.00 0.00 16 1008.9
20260502062519 82 158 0.9 6.1 0.00 0.00 0.00 15 1008.9
20260502061534 82 0.0 0.0 0.00 0.00 0.00 14 1008.7
20260502060519 82 0.0 0.0 0.00 0.00 0.00 14 1008.7
20260502055520 83 0.0 0.0 0.00 0.00 0.00 13 1008.6
20260502054523 83 0.0 0.9 0.00 0.00 0.00 13 1008.5
20260502053519 83 0.0 0.0 0.00 0.00 0.00 14 1008.3
20260502052519 83 0.0 0.0 0.00 0.00 0.00 14 1008.2
20260502051534 83 180 1.7 5.2 0.00 0.00 0.00 14 1008.2
20260502050519 83 0.0 3.5 0.00 0.00 0.00 15 1008.1
20260502045554 83 0.0 0.0 0.00 0.00 0.00 15 1008.0
20260502044534 83 0.0 0.0 0.00 0.00 0.00 15 1008.1
20260502043534 83 0.0 0.0 0.00 0.00 0.00 15 1008.1
20260502042533 83 0.0 0.0 0.00 0.00 0.00 15 1007.9
20260502041519 83 0.0 0.0 0.00 0.00 0.00 16 1007.8
20260502040519 83 0.0 0.0 0.00 0.00 0.00 16 1007.8
20260502035614 83 0.0 0.0 0.00 0.00 0.00 17 1007.6
20260502034533 83 0.0 0.0 0.00 0.00 0.00 17 1007.6
20260502033536 83 0.0 0.0 0.00 0.00 0.00 17 1007.4
20260502032519 83 0.0 0.0 0.00 0.00 0.00 17 1007.2
20260502031548 83 0.0 0.0 0.00 0.00 0.00 17 1007.1
20260502030534 82 0.0 0.9 0.00 0.00 0.00 17 1006.9
20260502025533 83 0.0 0.0 0.00 0.00 0.00 18 1006.8
20260502024554 83 0.0 0.0 0.00 0.00 0.00 18 1006.7
20260502023519 83 0.0 0.0 0.00 0.00 0.00 18 1006.5
20260502022518 83 0.0 0.0 0.00 0.00 0.00 17 1006.4
20260502021519 84 225 1.7 3.5 0.00 0.00 0.00 17 1006.4
20260502020534 84 0.0 0.0 0.00 0.00 0.00 16 1006.3
20260502015518 85 0.0 0.9 0.00 0.00 0.00 17 1006.4
20260502014554 85 0.0 0.0 0.00 0.00 0.00 16 1006.2
20260502013518 85 0.0 0.0 0.00 0.00 0.00 17 1006.3
20260502012520 85 0.0 0.0 0.00 0.00 0.00 17 1006.2
20260502011521 86 0.0 0.0 0.00 0.00 0.00 17 1006.3
20260502010520 85 0.0 0.0 0.00 0.00 0.00 16 1006.4
20260502005533 85 0.0 0.0 0.00 0.00 0.00 17 1006.4
20260502004518 86 0.0 0.0 0.00 0.00 0.00 17 1006.4
20260502003533 86 0.0 0.0 0.00 0.00 0.00 16 1006.4
20260502002535 86 0.0 0.0 0.00 0.00 0.00 17 1006.6
20260502001535 86 225 0.9 6.1 0.00 0.00 0.00 17 1006.6
20260502000535 85 0.0 0.0 0.00 0.00 0.00 17 1006.7
20260501235523 85 0.0 0.0 0.00 0.00 0.00 17 1006.7
20260501234520 85 203 0.9 3.5 0.00 0.00 0.00 17 1006.8
20260501233518 85 0.0 0.0 0.00 0.00 0.00 17 1006.8
20260501232553 85 0.0 2.6 0.00 0.00 0.00 17 1006.9
20260501231520 85 225 0.9 3.5 0.00 0.00 0.00 18 1007.0
20260501230555 85 0.0 0.0 0.00 0.00 0.00 19 1006.9
20260501225520 84 293 1.7 7.0 0.00 0.00 0.00 18 1007.2
20260501224535 85 0.0 0.9 0.00 0.00 0.00 19 1007.2
20260501223520 84 0.0 0.0 0.00 0.00 0.00 20 1007.3
20260501222535 84 0.0 0.0 0.00 0.00 0.00 20 1007.6
20260501221524 85 248 0.9 7.0 0.00 0.00 0.00 20 1007.6
20260501220520 84 225 0.9 4.3 0.00 0.00 0.00 20 1007.8
20260501215520 83 225 0.9 2.6 0.00 0.00 0.00 20 1007.9
20260501214540 84 0.0 0.0 0.00 0.00 0.00 21 1008.1
20260501213520 84 0.0 0.0 0.00 0.00 0.00 21 1008.2
20260501212520 83 0.0 0.0 0.00 0.00 0.00 21 1008.3
20260501211535 83 248 2.6 8.7 0.00 0.00 0.00 20 1008.4
20260501210538 83 0.0 0.0 0.00 0.00 0.00 21 1008.5
20260501205520 82 0.0 0.0 0.00 0.00 0.00 21 1008.7
20260501204536 83 180 0.9 6.1 0.00 0.00 0.00 22 1008.8
20260501203520 82 0.0 0.9 0.00 0.00 0.00 22 1008.9
20260501202534 82 0.0 0.0 0.00 0.00 0.00 22 1008.9
20260501201520 82 0.0 0.0 0.00 0.00 0.00 23 1009.0
20260501200534 81 180 0.9 6.1 0.00 0.00 0.00 23 1009.1
20260501195520 80 0.0 0.0 0.00 0.00 0.00 25 1009.1
20260501194554 80 270 0.9 3.5 0.00 0.00 0.00 25 1009.2
20260501193520 81 0.0 0.9 0.00 0.00 0.00 22 1009.4
20260501192634 80 0.0 1.7 0.00 0.00 0.00 25 1009.5
20260501191520 80 0.0 0.0 0.00 0.00 0.00 25 1009.8
20260501190534 79 0.0 0.9 0.00 0.00 0.00 26 1009.8
20260501185540 78 0.0 0.0 0.00 0.00 0.00 26 1009.8
20260501184519 78 0.0 0.0 0.00 0.00 0.00 26 1010.0
20260501183534 78 203 0.9 4.3 0.00 0.00 0.00 27 1010.1
20260501182534 78 0.0 0.0 0.00 0.00 0.00 27 1010.4
20260501181534 77 0.0 0.0 0.00 0.00 0.00 29 1010.5
20260501180519 78 0.0 0.0 0.00 0.00 0.00 28 1010.7
20260501175519 77 0.0 0.0 0.00 0.00 0.00 29 1010.5
20260501174536 76 0.0 0.0 0.00 0.00 0.00 31 1010.7
20260501173534 76 0.0 0.0 0.00 0.00 0.00 31 1010.8
20260501172519 76 0.0 0.0 0.00 0.00 0.00 31 1010.8
20260501171554 75 0.0 0.0 0.00 0.00 0.00 32 1010.8
20260501170554 75 0.0 0.0 0.00 0.00 0.00 33 1010.7
20260501165534 74 0.0 0.9 0.00 0.00 0.00 33 1010.8
20260501164519 73 0.0 0.0 0.00 0.00 0.00 33 1010.8
20260501163539 73 0.0 0.0 0.00 0.00 0.00 34 1010.9
20260501162539 73 0.0 0.0 0.00 0.00 0.00 35 1011.0
20260501161519 72 0.0 0.0 0.00 0.00 0.00 36 1010.8
20260501160519 72 248 0.9 3.5 0.00 0.00 0.00 37 1010.8
20260501155554 72 0.0 0.0 0.00 0.00 0.00 37 1010.8
20260501154549 72 0.0 1.7 0.00 0.00 0.00 38 1010.7
20260501153555 71 0.0 0.0 0.00 0.00 0.00 38 1010.7
20260501152519 71 0.0 1.7 0.00 0.00 0.00 39 1010.6